Regional Weather Roundup
Issued by NWS

Home | Current Version | Previous Version | Graphics & Text | Print | Product List | Glossary Off
Versions: 1 2 3 4 5 6 7 8 9 10 11 12 13 14 15 16 17 18 19 20 21 22 23 24 25 26 27 28 29 30 31 32 33 34 35 36 37 38 39 40 41 42 43 44 45 46 47 48 49 50

000
ASUS43 KMPX 250901
RWRMN
WEATHER ROUNDUP FOR MINNESOTA
NATIONAL WEATHER SERVICE TWIN CITIES/CHANHASSEN MN
400 AM CDT TUE JUL 25 2017


NOTE: "FAIR" INDICATES FEW OR NO CLOUDS BELOW 12,000 FEET WITH NO
SIGNIFICANT WEATHER AND/OR OBSTRUCTIONS TO VISIBILITY. N/A MEANS
CURRENT SKY AND/OR WEATHER CONDITIONS ARE NOT AVAILABLE.

MNZ060>063-068>070-251000-
   Twin Cities Metro

CITY           SKY/WX    TMP DP  RH WIND       PRES   REMARKS
TWIN CITIES    CLOUDY    67  59  75 SE10      30.03F
ST PAUL        CLOUDY    66  62  87 SE13      30.05S
CRYSTAL        CLOUDY    68  57  68 S9        30.02S
BLAINE         CLOUDY    70  61  73 S6        30.04S
LAKEVILLE      MOCLDY    63  63 100 SE7       30.04F
EDEN PRAIRIE   CLOUDY    69  60  73 S9        30.02S
SOUTH ST PAUL  CLOUDY    66  60  80 S7        30.05S
LAKE ELMO      FAIR      64  61  88 S7        30.07R
$$
MNZ001>005-007-008-013>017-022>024-027-028-251000-
   Northwest Minnesota

CITY           SKY/WX    TMP DP  RH WIND       PRES   REMARKS
BEMIDJI        MOCLDY    61  59  94 SE6       29.95F
HALLOCK        CLOUDY    66  63  88 S5        29.86S
ROSEAU         CLOUDY    66  61  82 S8        29.90R
WARROAD        CLOUDY    66  63  88 S6        29.91R
CROOKSTON      MOCLDY    66  63  88 S13       29.86F
FOSSTON        CLOUDY    63  61  94 S8        29.91F
DETROIT LAKES  PTCLDY    64  63  94 SE10      29.92F
MOORHEAD       CLEAR     68  63  83 SE12      29.87S
PARK RAPIDS    CLEAR     64  60  87 SE8       29.95F
MAHNOMEN       FAIR      65  62  90 SE6       29.90F
$$
MNZ006-009>011-018-025>026-251000-
   North Central Minnesota

CITY           SKY/WX    TMP DP  RH WIND       PRES   REMARKS
BAUDETTE       CLOUDY    62  60  93 S9        29.92F
FLAG ISLAND    CLOUDY    68  64  88 S10       29.90R
INTL FALLS     CLOUDY    60  57  89 S3        29.97S
WASKISH        MOCLDY    64  61  88 S6        29.94S
BIG FORK       CLOUDY    61  59  94 S5        29.98S
LONGVILLE      CLOUDY    61  59  94 CALM      29.98S
GRAND RAPIDS   PTCLDY    59  58  96 SE8       30.03F
CRANE LAKE     PTCLDY    57  55  94 CALM      30.01F FOG
ORR            CLOUDY    57  54  88 SE5       29.98F
COOK           PTCLDY    61  55  82 S3        30.01F
WALKER         FAIR      64  60  86 SE6       29.97R
$$
MNZ012-019>021-037-251000-
   Northeast Minnesota

CITY           SKY/WX    TMP DP  RH WIND       PRES   REMARKS
DULUTH         CLEAR     58  56  93 SE5       30.06S
ELY            CLOUDY    55  54  94 S5        30.05S
HIBBING        CLOUDY    52  52 100 SE6       30.02F
EVELETH        CLEAR     55  52  90 CALM      30.04F
DULUTH HARBOR  CLEAR     63  59  88 NE8       30.06R
TWO HARBORS    PTCLDY    54  48  82 CALM      30.06R
GRAND MARAIS     N/A     51  49  92 CALM      30.06R
G MARAIS ARPRT CLEAR     48  45  87 CALM      30.09S
$$
MNZ029>031-032-039>041-046>048-054>057-064-251000-
   West Central Minnesota

CITY           SKY/WX    TMP DP  RH WIND       PRES   REMARKS
FERGUS FALLS   CLOUDY    68  63  83 SE14      29.89F
WHEATON        PTCLDY    66  64  94 SE10      29.89F
MORRIS         CLOUDY    68  64  88 S12       29.90F
ALEXANDRIA     PTCLDY    67  63  87 SE14      29.96S
ELBOW LAKE     FAIR      66  64  90 E15       29.91S
WADENA         PTCLDY    63  63 100 SE6       29.94F
GLENWOOD       LGT RAIN  66  64  94 S17       29.95F
APPLETON       MOCLDY    70  64  83 SE8       29.90R
BENSON         CLOUDY    72  63  73 S17G23    29.93F
ORTONVILLE     MOCLDY    68  64  88 MISG      29.89S
MADISON        CLOUDY    72  66  83 S12G17    29.90F
WILLMAR        FAIR      70  64  83 S15       29.99R
$$
MNZ033>034-036-042>043-049>051-058-059-251000-
   Central Minnesota

CITY           SKY/WX    TMP DP  RH WIND       PRES   REMARKS
ST CLOUD       CLOUDY    67  63  87 SE12      30.00F
SAUK CENTRE    PTSUNNY   65  63  91 SE9       29.98R
PAYNESVILLE    MOCLDY    68  63  85 SE13G23   29.98F
AITKIN         CLOUDY    64  61  88 S8        30.00F
PINE RIVER     CLOUDY    63  61  94 SE7       30.01F
BRAINERD       CLOUDY    63  60  90 SE6       29.99F
STAPLES        CLOUDY    64  61  88 SE5       29.96F
LONG PRAIRIE   FAIR      63  61  94 E9        29.97F
LITTLE FALLS   CLOUDY    64  61  88 SE9       29.99S
LITCHFIELD     MOCLDY    70  64  83 SE10      29.99F
BUFFALO        MOCLDY    67  60  77 SE8       30.03S
MAPLE LAKE     CLOUDY    68  63  84 SE7       30.02F
HUTCHINSON     CLOUDY    66  65  94 SE9       30.01F
$$
MNZ037-044-045-052-053-251000-
   East Central Minnesota

CITY           SKY/WX    TMP DP  RH WIND       PRES   REMARKS
PRINCETON      CLOUDY    66  63  88 S10       30.01F
MORA           LGT RAIN  63  59  88 E3        30.05S
CAMBRIDGE      LGT RAIN  66  57  72 SE8       30.00F
RUSH CITY      LGT RAIN  64  60  88 S6        30.04F
MOOSE LAKE     PTCLDY    61  57  88 CALM      30.03S
HINCKLEY       LGT RAIN  63  61  94 SE3       30.05S
CLOQUET        CLEAR     55  54  94 E5        30.05F
MCGREGOR       CLOUDY    61  59  94 SE7       30.03S
$$
MNZ071>073-080-081-089-090-097-098-251000-
   Southwest Minnesota

CITY           SKY/WX    TMP DP  RH WIND       PRES   REMARKS
MONTEVIDEO     TSTM      68  64  88 SE12      29.93F
GRANITE FALLS  RAIN      69  65  88 E5        29.97S
CANBY          CLOUDY    71  64  80 SE13G18   29.92S
MARSHALL       CLOUDY    69  64  84 SE15      29.94F
REDWOOD FALLS  CLOUDY    68  63  84 E5        29.98R
OLIVIA         LGT RAIN  70  64  83 SE9       29.98F
PIPESTONE      PTCLDY    68  63  83 SE12      29.95F
WINDOM         CLOUDY    66  63  88 SE13G20   29.99F
WORTHINGTON    CLEAR     66  62  87 SE12      29.99F
JACKSON        PTCLDY    64  63  94 SE14      30.01F
TRACY          CLOUDY    68  64  87 S9        29.97F
SLAYTON        CLOUDY    64  61  89 SE8       30.00S
$$
MNZ065>067-074>077-082>085-091>093-251000-
   South Central Minnesota

CITY           SKY/WX    TMP DP  RH WIND       PRES   REMARKS
MANKATO        CLOUDY    66  62  87 SE12      30.01F
NEW ULM        CLOUDY    66  63  88 S15G22    29.97F
ST JAMES       CLOUDY    66  64  94 SE10G16   30.01S
FAIRMONT       CLOUDY    66  63  90 S16       30.02F
GLENCOE        TSTM      67  65  96 SE9       30.02R
FARIBAULT      CLOUDY    64  61  88 SE8       30.05F
OWATONNA       CLOUDY    64  61  88 SE13G20   30.05F
WASECA         PTCLDY    63  59  88 SE9       30.06F
ALBERT LEA     MOCLDY    66  61  82 S10G18    30.07S
$$
MNZ078>079-086>088-094>096-251000-
   Southeast Minnesota

CITY           SKY/WX    TMP DP  RH WIND       PRES   REMARKS
ROCHESTER      MOCLDY    61  60  97 S10       30.09S
RED WING       CLOUDY    66  57  72 SE8       30.05S
STANTON        MOCLDY    65  60  82 S8        30.04S
DODGE CENTER   CLOUDY    61  59  94 SE7       30.08F
WINONA         MOCLDY    61  57  88 SE6       30.10F
AUSTIN         PTCLDY    63  59  88 S6        30.08R
PRESTON        PTCLDY    60  57  88 S8        30.11F
$$
ABBREVIATIONS USED IN REMARKS
   TC - TEMPERATURES IN CELSIUS
  WCI - WIND CHILL INDEX
   HX - HEAT INDEX
  VSB - VISIBILITY
$$



USA.gov is the U.S. government's official web portal to all federal, state and local government web resources and services.